KN6RO Weather Reports


Display with metric or nautical units.
time (UTC)temp
F
wind
direction
speed
MPH
gust
MPH
rain 1hr
in
rain 24hr
in
rain mn
in
humidity
%
barometer
mb
20260505124007 61 91 0.0 1.0 0.00 0.00 0.00 57 1016.5
20260505123503 62 90 0.0 1.0 0.00 0.00 0.00 59 1016.5
20260505123007 62 91 0.0 1.0 0.00 0.00 0.00 59 1016.5
20260505122505 62 91 0.0 1.0 0.00 0.00 0.00 59 1016.6
20260505122008 62 90 0.0 2.0 0.00 0.00 0.00 58 1016.5
20260505121508 62 90 0.0 2.0 0.00 0.00 0.00 57 1016.3
20260505121006 63 86 0.0 1.0 0.00 0.00 0.00 59 1016.3
20260505120508 64 41 0.0 1.0 0.00 0.00 0.00 58 1016.4
20260505120008 64 41 0.0 1.0 0.00 0.00 0.00 53 1016.4
20260505115505 62 41 0.0 1.0 0.00 0.00 0.00 54 1016.5
20260505115006 61 355 0.0 1.0 0.00 0.00 0.00 56 1016.4
20260505114512 60 355 0.0 1.0 0.00 0.00 0.00 59 1016.3
20260505114005 59 355 0.0 1.0 0.00 0.00 0.00 61 1016.2
20260505113505 58 355 0.0 1.0 0.00 0.00 0.00 59 1016.0
20260505113011 58 249 0.0 1.0 0.00 0.00 0.00 58 1015.9
20260505112510 58 248 0.0 0.0 0.00 0.00 0.00 59 1015.9
20260505112003 57 248 0.0 1.0 0.00 0.00 0.00 60 1015.8
20260505111508 57 248 0.0 1.0 0.00 0.00 0.00 59 1015.7
20260505111006 57 248 0.0 1.0 0.00 0.00 0.00 59 1015.7
20260505110508 56 248 0.0 1.0 0.00 0.00 0.00 59 1015.8
20260505102007 56 252 0.0 1.0 0.00 0.00 0.00 60 1015.5
20260505101510 56 96 0.0 1.0 0.00 0.00 0.00 59 1015.6
20260505101006 56 94 0.0 1.0 0.00 0.00 0.00 57 1015.7
20260505100506 57 56 0.0 1.0 0.00 0.00 0.00 57 1015.9
20260505100011 57 56 0.0 1.0 0.00 0.00 0.00 58 1015.9
20260505095510 57 56 0.0 1.0 0.00 0.00 0.00 56 1016.0
20260505095011 57 56 0.0 1.0 0.00 0.00 0.00 56 1015.7
20260505094511 57 66 0.0 1.0 0.00 0.00 0.00 56 1015.8
20260505094006 57 66 0.0 1.0 0.00 0.00 0.00 56 1015.9
20260505093506 57 65 0.0 1.0 0.00 0.00 0.00 57 1015.8
20260505093013 57 233 0.0 1.0 0.00 0.00 0.00 56 1015.8
20260505092507 57 233 0.0 2.0 0.00 0.00 0.00 56 1015.9
20260505092007 58 36 0.0 2.0 0.00 0.00 0.00 56 1015.9
20260505091515 58 247 0.0 1.0 0.00 0.00 0.00 55 1015.9
20260505091007 58 248 0.0 1.0 0.00 0.00 0.00 55 1015.9
20260505090507 58 139 0.0 1.0 0.00 0.00 0.00 55 1015.9
20260505090012 58 140 0.0 1.0 0.00 0.00 0.00 55 1016.0
20260505085508 58 256 0.0 1.0 0.00 0.00 0.00 55 1016.0
20260505085006 58 311 0.0 1.0 0.00 0.00 0.00 55 1016.0
20260505084510 58 308 0.0 1.0 0.00 0.00 0.00 55 1016.0
20260505084005 58 338 0.0 1.0 0.00 0.00 0.00 55 1016.1
20260505083507 58 353 0.0 1.0 0.00 0.00 0.00 55 1016.1
20260505083014 58 304 1.0 1.0 0.00 0.00 0.00 55 1016.1
20260505082507 58 302 0.0 1.0 0.00 0.00 0.00 55 1016.1
20260505082010 58 327 0.0 2.0 0.00 0.00 0.00 56 1016.1
20260505081521 58 327 0.0 2.0 0.00 0.00 0.00 56 1016.0
20260505081008 58 314 0.0 1.0 0.00 0.00 0.00 57 1016.0
20260505080512 57 321 0.0 1.0 0.00 0.00 0.00 57 1016.1
20260505080006 57 307 0.0 1.0 0.00 0.00 0.00 58 1016.0
20260505075502 57 250 0.0 1.0 0.00 0.00 0.00 58 1015.9
20260505075003 57 250 0.0 1.0 0.00 0.00 0.00 58 1016.0
20260505074505 57 250 0.0 1.0 0.00 0.00 0.00 58 1016.0
20260505074004 57 250 0.0 1.0 0.00 0.00 0.00 58 1016.1
20260505073507 57 250 0.0 1.0 0.00 0.00 0.00 57 1016.1
20260505073012 58 250 0.0 1.0 0.00 0.00 0.00 58 1016.1
20260505072507 58 250 0.0 1.0 0.00 0.00 0.00 57 1016.1
20260505072007 58 250 0.0 1.0 0.00 0.00 0.00 57 1016.1
20260505071517 58 252 0.0 1.0 0.00 0.00 0.00 57 1016.1
20260505071007 58 252 0.0 1.0 0.00 0.00 0.00 57 1016.1
20260505070510 58 253 0.0 1.0 0.00 0.00 0.00 56 1016.0
20260505070016 58 253 0.0 0.0 0.00 0.00 0.00 55 1016.0
20260505065507 59 253 0.0 1.0 0.00 0.00 0.00 55 1016.1
20260505065008 59 253 0.0 1.0 0.00 0.00 0.00 54 1016.1
20260505064504 59 253 0.0 1.0 0.00 0.00 0.00 54 1016.1
20260505064007 59 253 0.0 1.0 0.00 0.00 0.00 54 1016.1
20260505063504 59 253 0.0 1.0 0.00 0.00 0.00 54 1016.1
20260505063008 59 253 0.0 1.0 0.00 0.00 0.00 54 1016.1
20260505062507 59 253 0.0 0.0 0.00 0.00 0.00 54 1016.2
20260505062008 59 253 0.0 1.0 0.00 0.00 0.00 55 1016.2
20260505061509 59 253 0.0 1.0 0.00 0.00 0.00 56 1016.2
20260505061007 59 253 0.0 1.0 0.00 0.00 0.00 54 1016.2
20260505060510 59 253 0.0 1.0 0.00 0.00 0.00 54 1016.3
20260505060018 59 253 0.0 1.0 0.00 0.00 0.00 54 1016.3
20260505055509 59 288 0.0 1.0 0.00 0.00 0.00 54 1016.4
20260505055010 59 310 0.0 1.0 0.00 0.00 0.00 53 1016.5
20260505054528 59 288 0.0 1.0 0.00 0.00 0.00 53 1016.5
20260505054008 59 288 0.0 2.0 0.00 0.00 0.00 54 1016.5
20260505053513 59 245 0.0 2.0 0.00 0.00 0.00 55 1016.5
20260505053005 59 253 0.0 1.0 0.00 0.00 0.00 53 1016.5
20260505052504 60 314 0.0 1.0 0.00 0.00 0.00 54 1016.5
20260505052004 60 314 0.0 1.0 0.00 0.00 0.00 52 1016.5
20260505051511 60 328 0.0 1.0 0.00 0.00 0.00 52 1016.5
20260505051009 60 316 0.0 1.0 0.00 0.00 0.00 52 1016.5
20260505050508 60 310 0.0 1.0 0.00 0.00 0.00 52 1016.5
20260505041508 61 338 0.0 1.0 0.00 0.00 0.00 50 1016.3
20260505041005 61 326 0.0 1.0 0.00 0.00 0.00 50 1016.3
20260505040505 61 314 0.0 1.0 0.00 0.00 0.00 50 1016.3
20260505040011 61 314 0.0 1.0 0.00 0.00 0.00 50 1016.3
20260505035505 61 314 0.0 1.0 0.00 0.00 0.00 50 1016.5
20260505035006 61 6 0.0 1.0 0.00 0.00 0.00 50 1016.5
20260505034525 61 4 0.0 1.0 0.00 0.00 0.00 50 1016.5
20260505034009 61 263 0.0 1.0 0.00 0.00 0.00 50 1016.4
20260505033506 61 283 0.0 1.0 0.00 0.00 0.00 51 1016.5
20260505033022 61 250 0.0 1.0 0.00 0.00 0.00 51 1016.4
20260505032507 61 250 0.0 1.0 0.00 0.00 0.00 52 1016.5
20260505032008 62 305 0.0 0.0 0.00 0.00 0.00 50 1016.5
20260505031524 62 305 0.0 1.0 0.00 0.00 0.00 49 1016.4
20260505031008 62 274 0.0 1.0 0.00 0.00 0.00 48 1016.4
20260505030509 62 255 0.0 1.0 0.00 0.00 0.00 49 1016.4
20260505030037 62 5 0.0 2.0 0.00 0.00 0.00 49 1016.5
20260505025508 63 29 1.0 2.0 0.00 0.00 0.00 49 1016.4
20260505025006 63 293 1.0 1.0 0.00 0.00 0.00 50 1016.5
20260505024524 62 5 0.0 1.0 0.00 0.00 0.00 50 1016.4
20260505024006 62 299 0.0 1.0 0.00 0.00 0.00 51 1016.5
20260505023506 63 338 0.0 1.0 0.00 0.00 0.00 51 1016.5
20260505023018 63 353 0.0 1.0 0.00 0.00 0.00 51 1016.4
20260505022508 63 23 0.0 1.0 0.00 0.00 0.00 52 1016.3
20260505022010 63 20 0.0 1.0 0.00 0.00 0.00 52 1016.3
20260505021524 63 20 0.0 1.0 0.00 0.00 0.00 52 1016.3
20260505021006 63 326 0.0 1.0 0.00 0.00 0.00 52 1016.3
20260505020509 63 326 0.0 1.0 0.00 0.00 0.00 52 1016.3
20260505020023 63 326 0.0 1.0 0.00 0.00 0.00 52 1016.2
20260505015510 63 321 0.0 1.0 0.00 0.00 0.00 52 1016.2
20260505015007 64 321 0.0 1.0 0.00 0.00 0.00 52 1016.1
20260505014524 64 319 0.0 1.0 0.00 0.00 0.00 52 1016.1
20260505014005 64 322 0.0 1.0 0.00 0.00 0.00 53 1016.0
20260505013505 64 323 0.0 1.0 0.00 0.00 0.00 53 1015.9
20260505013018 64 330 1.0 1.0 0.00 0.00 0.00 53 1015.9
20260505012507 64 279 0.0 1.0 0.00 0.00 0.00 53 1015.9
20260505012005 64 279 0.0 1.0 0.00 0.00 0.00 54 1015.9
20260505011519 64 255 0.0 1.0 0.00 0.00 0.00 54 1015.9
20260505011006 64 255 0.0 1.0 0.00 0.00 0.00 55 1015.9
20260505010507 63 255 0.0 1.0 0.00 0.00 0.00 55 1015.9
20260505010022 64 255 0.0 1.0 0.00 0.00 0.00 55 1015.8
20260505005512 64 263 0.0 1.0 0.00 0.00 0.00 55 1015.8
20260505005011 65 300 0.0 1.0 0.00 0.00 0.00 54 1015.8
20260505004547 65 300 0.0 1.0 0.00 0.00 0.00 53 1015.8
20260505004010 65 300 0.0 1.0 0.00 0.00 0.00 52 1015.7
20260505003506 65 300 0.0 1.0 0.00 0.00 0.00 52 1015.6
20260505003026 65 300 0.0 1.0 0.00 0.00 0.00 51 1015.6
20260505002506 65 239 0.0 1.0 0.00 0.00 0.00 51 1015.6
20260505002009 65 239 0.0 1.0 0.00 0.00 0.00 52 1015.5
20260505001512 65 239 1.0 1.0 0.00 0.00 0.00 51 1015.5
20260505001006 66 239 0.0 1.0 0.00 0.00 0.00 52 1015.5
20260505000511 66 236 1.0 1.0 0.00 0.00 0.00 52 1015.5
20260505000020 66 236 1.0 1.0 0.00 0.00 0.00 52 1015.5
20260504235508 66 236 0.0 1.0 0.00 0.00 0.00 51 1015.5
20260504235008 67 235 1.0 1.0 0.00 0.00 0.00 50 1015.5
20260504234524 67 235 1.0 1.0 0.00 0.00 0.00 50 1015.5
20260504234006 67 235 0.0 1.0 0.00 0.00 0.00 51 1015.5
20260504233507 67 235 0.0 1.0 0.00 0.00 0.00 50 1015.6
20260504233025 67 235 0.0 1.0 0.00 0.00 0.00 50 1015.6
20260504232503 67 235 0.0 1.0 0.00 0.00 0.00 50 1015.6
20260504232007 67 235 0.0 1.0 0.00 0.00 0.00 50 1015.6
20260504231510 67 234 1.0 1.0 0.00 0.00 0.00 49 1015.6
20260504231010 68 98 0.0 1.0 0.00 0.00 0.00 49 1015.5
20260504230507 68 98 0.0 1.0 0.00 0.00 0.00 48 1015.5
20260504230016 68 98 0.0 1.0 0.00 0.00 0.00 48 1015.4
20260504225508 68 97 0.0 1.0 0.00 0.00 0.00 47 1015.4
20260504225008 69 96 0.0 1.0 0.00 0.00 0.00 48 1015.5
20260504224529 69 86 0.0 1.0 0.00 0.00 0.00 48 1015.5
20260504224006 69 86 0.0 1.0 0.00 0.00 0.00 46 1015.6
20260504223510 70 86 0.0 1.0 0.00 0.00 0.00 46 1015.5
20260504223025 70 86 0.0 1.0 0.00 0.00 0.00 44 1015.6
20260504222504 70 86 0.0 1.0 0.00 0.00 0.00 46 1015.6
20260504222008 70 86 0.0 1.0 0.00 0.00 0.00 45 1015.7
20260504221506 70 86 0.0 1.0 0.00 0.00 0.00 43 1015.7
20260504221006 70 84 0.0 1.0 0.00 0.00 0.00 45 1015.7
20260504220506 70 84 0.0 1.0 0.00 0.00 0.00 43 1015.7
20260504220012 70 84 0.0 1.0 0.00 0.00 0.00 45 1015.6
20260504215508 70 53 0.0 2.0 0.00 0.00 0.00 43 1015.7
20260504215011 70 48 0.0 4.0 0.00 0.00 0.00 44 1015.6
20260504214519 70 102 1.0 4.0 0.00 0.00 0.00 44 1015.6
20260504214007 71 108 0.0 2.0 0.00 0.00 0.00 46 1015.6
20260504213512 71 63 0.0 2.0 0.00 0.00 0.00 42 1015.5
20260504213032 71 36 0.0 2.0 0.00 0.00 0.00 45 1015.5
20260504212508 71 76 0.0 2.0 0.00 0.00 0.00 48 1015.4
20260504212007 72 96 0.0 3.0 0.00 0.00 0.00 47 1015.6
20260504211532 72 76 1.0 3.0 0.00 0.00 0.00 48 1015.5
20260504211007 72 72 0.0 4.0 0.00 0.00 0.00 48 1015.5
20260504210505 72 158 1.0 4.0 0.00 0.00 0.00 43 1015.5
20260504210008 72 102 1.0 2.0 0.00 0.00 0.00 44 1015.5
20260504205504 72 41 0.0 1.0 0.00 0.00 0.00 46 1015.4
20260504205003 72 19 0.0 2.0 0.00 0.00 0.00 47 1015.5
20260504204513 72 247 1.0 2.0 0.00 0.00 0.00 44 1015.6
20260504204008 72 251 0.0 2.0 0.00 0.00 0.00 45 1015.6
20260504203509 72 257 0.0 2.0 0.00 0.00 0.00 43 1015.6
20260504203018 71 86 0.0 1.0 0.00 0.00 0.00 46 1015.6
20260504202508 71 85 0.0 4.0 0.00 0.00 0.00 45 1015.7
20260504202007 71 104 0.0 4.0 0.00 0.00 0.00 45 1015.9
20260504201523 71 75 0.0 3.0 0.00 0.00 0.00 45 1015.9
20260504201011 71 50 1.0 3.0 0.00 0.00 0.00 48 1016.0
20260504200509 71 238 1.0 3.0 0.00 0.00 0.00 47 1016.0
20260504200027 71 139 1.0 3.0 0.00 0.00 0.00 43 1016.1
20260504195509 71 248 1.0 3.0 0.00 0.00 0.00 47 1016.1
20260504195003 71 41 0.0 3.0 0.00 0.00 0.00 48 1016.1
20260504194516 71 55 1.0 2.0 0.00 0.00 0.00 44 1016.2
20260504194007 71 98 0.0 4.0 0.00 0.00 0.00 45 1016.3
20260504193508 71 32 0.0 4.0 0.00 0.00 0.00 44 1016.3
20260504193018 71 37 1.0 2.0 0.00 0.00 0.00 46 1016.4
20260504192508 71 139 0.0 2.0 0.00 0.00 0.00 44 1016.5
20260504192008 72 83 0.0 4.0 0.00 0.00 0.00 42 1016.6
20260504191524 72 84 1.0 4.0 0.00 0.00 0.00 44 1016.7
20260504191009 72 40 0.0 3.0 0.00 0.00 0.00 47 1016.7
20260504190509 72 39 0.0 3.0 0.00 0.00 0.00 44 1016.7
20260504190024 73 41 1.0 2.0 0.00 0.00 0.00 41 1016.7
20260504185512 73 254 0.0 1.0 0.00 0.00 0.00 43 1016.7
20260504185010 72 32 0.0 4.0 0.00 0.00 0.00 41 1016.8
20260504184540 72 36 1.0 4.0 0.00 0.00 0.00 42 1016.8
20260504184013 73 6 1.0 3.0 0.00 0.00 0.00 41 1016.8
20260504183504 72 53 0.0 3.0 0.00 0.00 0.00 43 1016.9
20260504183013 72 6 1.0 3.0 0.00 0.00 0.00 44 1017.0
20260504182510 71 98 1.0 6.0 0.00 0.00 0.00 42 1017.1
20260504182007 72 297 3.0 6.0 0.00 0.00 0.00 45 1017.2
20260504181519 72 72 1.0 2.0 0.00 0.00 0.00 46 1017.2
20260504181008 71 70 1.0 6.0 0.00 0.00 0.00 46 1017.2
20260504180510 70 96 1.0 6.0 0.00 0.00 0.00 47 1017.3
20260504180029 70 49 2.0 5.0 0.00 0.00 0.00 45 1017.3
20260504175510 71 27 1.0 5.0 0.00 0.00 0.00 45 1017.4
20260504175015 71 34 1.0 5.0 0.00 0.00 0.00 44 1017.4
20260504174526 71 251 1.0 4.0 0.00 0.00 0.00 45 1017.5
20260504174010 72 331 1.0 4.0 0.00 0.00 0.00 43 1017.5
20260504173510 73 32 1.0 3.0 0.00 0.00 0.00 44 1017.5
20260504173028 73 51 1.0 3.0 0.00 0.00 0.00 44 1017.6
20260504172507 72 102 1.0 3.0 0.00 0.00 0.00 44 1017.7
20260504172008 71 38 0.0 4.0 0.00 0.00 0.00 48 1017.8
20260504171514 70 58 2.0 4.0 0.00 0.00 0.00 45 1017.8
20260504171008 70 37 2.0 5.0 0.00 0.00 0.00 46 1017.8
20260504170513 70 246 2.0 5.0 0.00 0.00 0.00 46 1017.8
20260504151006 64 36 3.0 8.0 0.00 0.00 0.00 48 1018.8
20260504150516 63 58 2.0 8.0 0.00 0.00 0.00 48 1018.7
20260504141008 62 274 1.0 5.0 0.00 0.00 0.00 51 1018.8
20260504140504 62 57 3.0 5.0 0.00 0.00 0.00 48 1018.8
20260504130503 60 51 2.0 5.0 0.00 0.00 0.00 49 1018.6